When you browse on this site, cookies collect data to enhance your experience and personalize the content and advertising you see.
Visit our Privacy Policy to learn more. By continuing to use the site, you agree to this use of cookies and data.
  • In Hungary
  • List of Countries
  • For 7 days
  • Water Temperature
  • Weather Map
  • News
  • Weather Widgets
  • user-avatar
    Login

    Hourly Weather Malyy Karlygan

    Today, 15 October, Tuesday

    Time Temperature Precipitation Wind Pressure Humidity
    00:00 +4°C° 0 mm 3 mps 743 mmHg 89%
    01:00 +5°C° 0.2 mm 2 mps 742 mmHg 91%
    02:00 +5°C° 0.2 mm 2 mps 741 mmHg 93%
    03:00 +5°C° 0.2 mm 2 mps 741 mmHg 95%
    04:00 +5°C° 0.6 mm 2 mps 740 mmHg 95%
    05:00 +5°C° 0.6 mm 2 mps 740 mmHg 95%
    06:00 +5°C° 0.6 mm 2 mps 739 mmHg 95%
    07:00 +5°C° 0.2 mm 2 mps 739 mmHg 94%
    08:00 +6°C° 0.2 mm 2 mps 739 mmHg 94%
    09:00 +6°C° 0.2 mm 2 mps 739 mmHg 93%
    10:00 +6°C° 0.3 mm 2 mps 739 mmHg 93%
    11:00 +6°C° 0.3 mm 2 mps 739 mmHg 93%
    12:00 +6°C° 0.3 mm 2 mps 739 mmHg 93%
    13:00 +5°C° 0.1 mm 3 mps 740 mmHg 91%
    14:00 +5°C° 0.1 mm 3 mps 741 mmHg 90%
    15:00 +5°C° 0.1 mm 4 mps 741 mmHg 88%
    16:00 +4°C° 0 mm 4 mps 742 mmHg 86%
    17:00 +4°C° 0 mm 4 mps 743 mmHg 84%
    18:00 +2°C° 0 mm 5 mps 744 mmHg 82%
    19:00 +2°C° 0 mm 5 mps 744 mmHg 79%
    20:00 +2°C° 0 mm 5 mps 745 mmHg 76%
    21:00 +1°C° 0 mm 5 mps 746 mmHg 73%
    22:00 +1°C° 0 mm 5 mps 746 mmHg 78%
    23:00 +1°C° 0 mm 5 mps 747 mmHg 83%

    Tomorrow, 16 October, Wednesday

    Time Temperature Precipitation Wind Pressure Humidity
    00:00 +1°C° 0 mm 5 mps 747 mmHg 89%
    01:00 +1°C° 0 mm 5 mps 748 mmHg 88%
    02:00 +1°C° 0 mm 5 mps 749 mmHg 87%
    03:00 +1°C° 0 mm 5 mps 749 mmHg 87%
    04:00 0°C° 0 mm 5 mps 750 mmHg 85%
    05:00 0°C° 0 mm 5 mps 750 mmHg 84%
    06:00 0°C° 0 mm 5 mps 751 mmHg 83%
    07:00 0°C° 0 mm 5 mps 751 mmHg 80%
    08:00 +1°C° 0 mm 6 mps 752 mmHg 78%
    09:00 +1°C° 0 mm 6 mps 752 mmHg 75%
    10:00 +1°C° 0 mm 6 mps 753 mmHg 74%
    11:00 +2°C° 0 mm 5 mps 753 mmHg 72%
    12:00 +2°C° 0 mm 5 mps 753 mmHg 70%
    13:00 +2°C° 0 mm 5 mps 753 mmHg 70%
    14:00 +3°C° 0 mm 4 mps 754 mmHg 70%
    15:00 +3°C° 0 mm 4 mps 754 mmHg 70%
    16:00 +2°C° 0 mm 3 mps 754 mmHg 75%
    17:00 +1°C° 0 mm 3 mps 754 mmHg 80%
    18:00 +1°C° 0 mm 2 mps 755 mmHg 85%
    19:00 +1°C° 0 mm 2 mps 755 mmHg 86%
    20:00 +1°C° 0 mm 2 mps 755 mmHg 87%
    21:00 -1°C° 0 mm 2 mps 755 mmHg 88%
    22:00 +1°C° 0 mm 2 mps 755 mmHg 88%
    23:00 +1°C° 0 mm 2 mps 755 mmHg 87%

    Day after tomorrow, 17 October, Thursday

    Time Temperature Precipitation Wind Pressure Humidity
    00:00 +2°C° 0 mm 1 mps 754 mmHg 87%
    01:00 +1°C° 0 mm 2 mps 754 mmHg 87%
    02:00 +1°C° 0 mm 2 mps 754 mmHg 87%
    03:00 0°C° 0 mm 3 mps 754 mmHg 88%
    04:00 0°C° 0.3 mm 3 mps 754 mmHg 91%
    05:00 -1°C° 0.3 mm 4 mps 753 mmHg 94%
    06:00 -1°C° 0.3 mm 4 mps 752 mmHg 97%
    07:00 -1°C° 0.5 mm 5 mps 752 mmHg 93%
    08:00 -1°C° 0.5 mm 6 mps 751 mmHg 89%
    09:00 +1°C° 0.5 mm 6 mps 750 mmHg 85%
    10:00 +2°C° 0 mm 7 mps 749 mmHg 81%
    11:00 +2°C° 0 mm 7 mps 749 mmHg 76%
    12:00 +3°C° 0 mm 7 mps 748 mmHg 72%
    13:00 +4°C° 0 mm 7 mps 747 mmHg 72%
    14:00 +4°C° 0 mm 7 mps 746 mmHg 72%
    15:00 +4°C° 0 mm 7 mps 745 mmHg 72%
    16:00 +5°C° 0.5 mm 7 mps 744 mmHg 77%
    17:00 +5°C° 0.5 mm 7 mps 744 mmHg 82%
    18:00 +5°C° 0.5 mm 7 mps 743 mmHg 87%
    19:00 +5°C° 0.4 mm 7 mps 743 mmHg 89%
    20:00 +7°C° 0.4 mm 6 mps 742 mmHg 92%
    21:00 +7°C° 0.4 mm 6 mps 742 mmHg 94%
    22:00 +7°C° 0.2 mm 6 mps 742 mmHg 93%
    23:00 +7°C° 0.2 mm 6 mps 742 mmHg 93%

    18 October, Friday

    Time Temperature Precipitation Wind Pressure Humidity
    00:00 +7°C° 0.2 mm 6 mps 742 mmHg 93%
    01:00 +4°C° 0.1 mm 7 mps 743 mmHg 87%
    02:00 +2°C° 0.1 mm 7 mps 744 mmHg 81%
    03:00 0°C° 0.1 mm 7 mps 744 mmHg 75%
    04:00 -1°C° 0 mm 7 mps 745 mmHg 78%
    05:00 -1°C° 0 mm 6 mps 746 mmHg 80%
    06:00 -2°C° 0 mm 6 mps 746 mmHg 83%
    07:00 -2°C° 0 mm 6 mps 747 mmHg 80%
    08:00 -1°C° 0 mm 6 mps 748 mmHg 76%
    09:00 -1°C° 0 mm 6 mps 749 mmHg 73%
    10:00 -1°C° 0 mm 6 mps 749 mmHg 73%
    11:00 -1°C° 0 mm 6 mps 750 mmHg 72%
    12:00 -1°C° 0 mm 6 mps 750 mmHg 72%
    13:00 -1°C° 0 mm 6 mps 751 mmHg 72%
    14:00 -1°C° 0 mm 6 mps 752 mmHg 72%
    15:00 -2°C° 0 mm 6 mps 752 mmHg 73%
    16:00 -1°C° 0 mm 5 mps 753 mmHg 73%
    17:00 -1°C° 0 mm 5 mps 753 mmHg 74%
    18:00 -2°C° 0 mm 5 mps 754 mmHg 75%
    19:00 -2°C° 0 mm 4 mps 754 mmHg 75%
    20:00 -2°C° 0 mm 4 mps 755 mmHg 75%
    21:00 -2°C° 0 mm 4 mps 755 mmHg 75%
    22:00 -1°C° 0 mm 3 mps 756 mmHg 76%
    23:00 -2°C° 0 mm 3 mps 756 mmHg 76%

    19 October, Saturday

    Time Temperature Precipitation Wind Pressure Humidity
    00:00 -2°C° 0 mm 3 mps 756 mmHg 77%
    01:00 -2°C° 0 mm 2 mps 757 mmHg 80%
    02:00 -3°C° 0 mm 2 mps 757 mmHg 83%
    03:00 -4°C° 0 mm 2 mps 757 mmHg 86%
    04:00 -4°C° 0 mm 2 mps 758 mmHg 85%
    05:00 -4°C° 0 mm 2 mps 758 mmHg 85%
    06:00 -2°C° 0 mm 1 mps 758 mmHg 85%
    07:00 -1°C° 0 mm 1 mps 759 mmHg 80%
    08:00 0°C° 0 mm 1 mps 759 mmHg 75%
    09:00 +1°C° 0 mm 1 mps 759 mmHg 71%
    10:00 +1°C° 0 mm 1 mps 759 mmHg 67%
    11:00 +2°C° 0 mm 1 mps 759 mmHg 63%
    12:00 +3°C° 0 mm 1 mps 759 mmHg 59%
    13:00 +3°C° 0 mm 1 mps 759 mmHg 60%
    14:00 +3°C° 0 mm 1 mps 759 mmHg 61%
    15:00 +2°C° 0 mm 2 mps 759 mmHg 62%
    16:00 +1°C° 0 mm 2 mps 759 mmHg 66%
    17:00 -1°C° 0 mm 2 mps 758 mmHg 71%
    18:00 -2°C° 0 mm 2 mps 758 mmHg 76%
    19:00 -2°C° 0 mm 2 mps 758 mmHg 77%
    20:00 -2°C° 0 mm 2 mps 758 mmHg 78%
    21:00 -2°C° 0 mm 2 mps 758 mmHg 78%
    22:00 -2°C° 0 mm 2 mps 758 mmHg 79%
    23:00 -2°C° 0 mm 2 mps 758 mmHg 79%

    20 October, Sunday

    Time Temperature Precipitation Wind Pressure Humidity
    00:00 -2°C° 0 mm 2 mps 758 mmHg 79%
    01:00 -2°C° 0 mm 2 mps 758 mmHg 80%
    02:00 -2°C° 0 mm 2 mps 758 mmHg 80%
    03:00 -2°C° 0 mm 2 mps 758 mmHg 81%
    04:00 -2°C° 0 mm 2 mps 758 mmHg 82%
    05:00 -2°C° 0 mm 2 mps 758 mmHg 84%
    06:00 -2°C° 0 mm 2 mps 758 mmHg 85%
    07:00 -1°C° 0 mm 2 mps 758 mmHg 81%
    08:00 +1°C° 0 mm 2 mps 758 mmHg 76%
    09:00 +2°C° 0 mm 2 mps 758 mmHg 72%
    10:00 +3°C° 0 mm 2 mps 759 mmHg 68%
    11:00 +3°C° 0 mm 3 mps 759 mmHg 64%
    12:00 +3°C° 0 mm 3 mps 759 mmHg 60%
    13:00 +4°C° 0 mm 2 mps 758 mmHg 63%
    14:00 +4°C° 0 mm 2 mps 758 mmHg 66%
    15:00 +4°C° 0 mm 2 mps 758 mmHg 69%
    16:00 +3°C° 0 mm 2 mps 758 mmHg 73%
    17:00 +1°C° 0 mm 2 mps 758 mmHg 77%
    18:00 -1°C° 0 mm 2 mps 758 mmHg 81%
    19:00 -1°C° 0 mm 2 mps 758 mmHg 83%
    20:00 -1°C° 0 mm 2 mps 758 mmHg 84%
    21:00 -1°C° 0 mm 2 mps 758 mmHg 85%
    22:00 -1°C° 0 mm 2 mps 758 mmHg 87%
    23:00 -1°C° 0 mm 2 mps 758 mmHg 88%
    Show more